Time,TemperatureF,DewpointF,PressureIn,WindDirection,WindDirectionDegrees,WindSpeedMPH,WindSpeedGustMPH,Humidity,HourlyPrecipIn,Conditions,Clouds,dailyrainin,SolarRadiationWatts/m^2,SoftwareType,DateUTC
2013-03-16 00:00:00,54.1,32.1,29.79,SW,224,3.0,5.0,43,0.00,,,0.00,0.00,VWS V14.01,2013-03-16 04:00:00,
2013-03-16 00:05:00,54.2,32.2,29.79,WSW,242,2.0,3.0,43,0.00,,,0.00,0.00,VWS V14.01,2013-03-16 04:05:00,
2013-03-16 00:10:00,54.2,32.2,29.79,SW,222,4.0,4.0,43,0.00,,,0.00,0.00,VWS V14.01,2013-03-16 04:10:00,
2013-03-16 00:15:00,54.1,32.7,29.79,SSW,204,4.0,4.0,44,0.00,,,0.00,0.00,VWS V14.01,2013-03-16 04:15:00,
2013-03-16 00:20:00,53.9,32.5,29.79,SSW,200,5.0,6.0,44,0.00,,,0.00,0.00,VWS V14.01,2013-03-16 04:20:00,
2013-03-16 00:25:00,53.9,32.5,29.79,SW,227,4.0,5.0,44,0.00,,,0.00,0.00,VWS V14.01,2013-03-16 04:25:00,
2013-03-16 00:30:00,53.8,33.0,29.78,SSW,210,2.0,5.0,45,0.00,,,0.00,0.00,VWS V14.01,2013-03-16 04:30:00,
2013-03-16 00:35:00,53.6,32.8,29.78,SSW,203,2.0,3.0,45,0.00,,,0.00,0.00,VWS V14.01,2013-03-16 04:35:00,
2013-03-16 00:40:00,53.3,32.5,29.78,SSW,198,2.0,5.0,45,0.00,,,0.00,0.00,VWS V14.01,2013-03-16 04:40:00,
2013-03-16 00:45:00,53.2,33.0,29.78,SSW,201,3.0,6.0,46,0.00,,,0.00,0.00,VWS V14.01,2013-03-16 04:45:00,
2013-03-16 00:50:00,52.9,32.7,29.78,SSW,197,1.0,3.0,46,0.00,,,0.00,0.00,VWS V14.01,2013-03-16 04:50:00,
2013-03-16 00:55:00,52.6,33.0,29.78,South,191,2.0,4.0,47,0.00,,,0.00,0.00,VWS V14.01,2013-03-16 04:55:00,
2013-03-16 01:00:00,52.5,32.9,29.78,South,182,3.0,4.0,47,0.00,,,0.00,0.00,VWS V14.01,2013-03-16 05:00:00,
2013-03-16 01:05:00,52.5,32.9,29.78,SSW,205,5.0,6.0,47,0.00,,,0.00,0.00,VWS V14.01,2013-03-16 05:05:00,
2013-03-16 01:10:00,52.3,33.2,29.78,SW,217,3.0,3.0,48,0.00,,,0.00,0.00,VWS V14.01,2013-03-16 05:10:00,
2013-03-16 01:15:00,52.2,33.1,29.77,SSW,193,4.0,6.0,48,0.00,,,0.00,0.00,VWS V14.01,2013-03-16 05:15:00,
2013-03-16 01:20:00,52.0,32.9,29.77,SSW,206,3.0,4.0,48,0.00,,,0.00,0.00,VWS V14.01,2013-03-16 05:20:00,
2013-03-16 01:25:00,51.9,33.4,29.77,SW,222,7.0,7.0,49,0.00,,,0.00,0.00,VWS V14.01,2013-03-16 05:25:00,
2013-03-16 01:30:00,51.7,33.2,29.77,SSW,200,3.0,6.0,49,0.00,,,0.00,0.00,VWS V14.01,2013-03-16 05:30:00,
2013-03-16 01:35:00,51.6,33.6,29.77,SSW,206,4.0,4.0,50,0.00,,,0.00,0.00,VWS V14.01,2013-03-16 05:35:00,
2013-03-16 01:40:00,51.6,33.6,29.77,SSW,211,3.0,3.0,50,0.00,,,0.00,0.00,VWS V14.01,2013-03-16 05:40:00,
2013-03-16 01:45:00,51.4,33.4,29.76,South,188,5.0,7.0,50,0.00,,,0.00,0.00,VWS V14.01,2013-03-16 05:45:00,
2013-03-16 01:50:00,51.6,33.6,29.76,SW,228,2.0,5.0,50,0.00,,,0.00,0.00,VWS V14.01,2013-03-16 05:50:00,
2013-03-16 01:55:00,51.6,33.6,29.76,South,190,4.0,4.0,50,0.00,,,0.00,0.00,VWS V14.01,2013-03-16 05:55:00,
2013-03-16 02:00:00,51.6,33.6,29.76,SSW,205,6.0,6.0,50,0.00,,,0.00,0.00,VWS V14.01,2013-03-16 06:00:00,
2013-03-16 02:05:00,51.7,33.7,29.76,SW,225,6.0,6.0,50,0.00,,,0.00,0.00,VWS V14.01,2013-03-16 06:05:00,
2013-03-16 02:10:00,51.9,33.9,29.76,South,181,0.0,3.0,50,0.00,,,0.00,0.00,VWS V14.01,2013-03-16 06:10:00,
2013-03-16 02:15:00,52.0,34.0,29.76,SW,221,3.0,3.0,50,0.00,,,0.00,0.00,VWS V14.01,2013-03-16 06:15:00,
2013-03-16 02:20:00,52.0,34.0,29.76,SSW,207,1.0,4.0,50,0.00,,,0.00,0.00,VWS V14.01,2013-03-16 06:20:00,
2013-03-16 02:25:00,52.0,34.5,29.76,SW,219,5.0,5.0,51,0.00,,,0.00,0.00,VWS V14.01,2013-03-16 06:25:00,
2013-03-16 02:30:00,51.9,34.4,29.75,SW,219,5.0,5.0,51,0.00,,,0.00,0.00,VWS V14.01,2013-03-16 06:30:00,
2013-03-16 02:35:00,51.9,34.4,29.75,SW,226,0.0,6.0,51,0.00,,,0.00,0.00,VWS V14.01,2013-03-16 06:35:00,
2013-03-16 02:40:00,51.7,34.2,29.75,South,177,0.0,2.0,51,0.00,,,0.00,0.00,VWS V14.01,2013-03-16 06:40:00,
2013-03-16 02:45:00,51.7,34.2,29.75,SSW,204,0.0,4.0,51,0.00,,,0.00,0.00,VWS V14.01,2013-03-16 06:45:00,
2013-03-16 02:50:00,51.7,34.7,29.75,South,189,2.0,5.0,52,0.00,,,0.00,0.00,VWS V14.01,2013-03-16 06:50:00,
2013-03-16 02:55:00,51.6,34.6,29.75,South,189,2.0,2.0,52,0.00,,,0.00,0.00,VWS V14.01,2013-03-16 06:55:00,
2013-03-16 03:00:00,51.6,34.6,29.75,SSW,206,2.0,3.0,52,0.00,,,0.00,0.00,VWS V14.01,2013-03-16 07:00:00,
2013-03-16 03:05:00,51.6,35.0,29.75,SSW,203,0.0,4.0,53,0.00,,,0.00,0.00,VWS V14.01,2013-03-16 07:05:00,
2013-03-16 03:10:00,51.6,35.0,29.75,SSW,203,0.0,0.0,53,0.00,,,0.00,0.00,VWS V14.01,2013-03-16 07:10:00,
2013-03-16 03:15:00,51.4,35.3,29.74,SSW,203,1.0,3.0,54,0.00,,,0.00,0.00,VWS V14.01,2013-03-16 07:15:00,
2013-03-16 03:20:00,51.1,35.5,29.74,SSW,203,3.0,3.0,55,0.00,,,0.00,0.00,VWS V14.01,2013-03-16 07:20:00,
2013-03-16 03:25:00,51.0,36.3,29.74,SW,214,0.0,2.0,57,0.00,,,0.00,0.00,VWS V14.01,2013-03-16 07:25:00,
2013-03-16 03:30:00,50.5,37.2,29.73,SW,214,0.0,0.0,60,0.00,,,0.00,0.00,VWS V14.01,2013-03-16 07:30:00,
2013-03-16 03:35:00,49.9,37.4,29.73,SW,214,0.0,0.0,62,0.00,,,0.00,0.00,VWS V14.01,2013-03-16 07:35:00,
2013-03-16 03:40:00,49.4,37.8,29.73,SW,214,0.0,0.0,64,0.00,,,0.00,0.00,VWS V14.01,2013-03-16 07:40:00,
2013-03-16 03:45:00,48.8,37.2,29.73,SW,214,0.0,0.0,64,0.00,,,0.00,0.00,VWS V14.01,2013-03-16 07:45:00,
2013-03-16 03:50:00,48.2,37.0,29.73,SW,214,0.0,0.0,65,0.00,,,0.00,0.00,VWS V14.01,2013-03-16 07:50:00,
2013-03-16 03:55:00,47.6,37.2,29.73,SW,214,0.0,0.0,67,0.00,,,0.00,0.00,VWS V14.01,2013-03-16 07:55:00,
2013-03-16 04:00:00,47.1,37.1,29.73,SW,214,0.0,0.0,68,0.00,,,0.00,0.00,VWS V14.01,2013-03-16 08:00:00,
2013-03-16 04:05:00,46.7,36.7,29.73,SW,214,0.0,0.0,68,0.00,,,0.00,0.00,VWS V14.01,2013-03-16 08:05:00,
2013-03-16 04:10:00,46.4,36.4,29.73,SW,214,0.0,0.0,68,0.00,,,0.00,0.00,VWS V14.01,2013-03-16 08:10:00,
2013-03-16 04:15:00,46.1,36.5,29.72,SW,214,0.0,0.0,69,0.00,,,0.00,0.00,VWS V14.01,2013-03-16 08:15:00,
2013-03-16 04:20:00,45.8,36.6,29.72,SW,214,0.0,0.0,70,0.00,,,0.00,0.00,VWS V14.01,2013-03-16 08:20:00,
2013-03-16 04:25:00,45.8,37.3,29.72,SW,214,0.0,0.0,72,0.00,,,0.00,0.00,VWS V14.01,2013-03-16 08:25:00,
2013-03-16 04:30:00,45.7,37.5,29.72,SW,214,0.0,0.0,73,0.00,,,0.00,0.00,VWS V14.01,2013-03-16 08:30:00,
2013-03-16 04:35:00,45.5,37.4,29.72,SW,214,0.0,1.0,73,0.00,,,0.00,0.00,VWS V14.01,2013-03-16 08:35:00,
2013-03-16 04:40:00,45.4,37.3,29.72,SW,214,0.0,0.0,73,0.00,,,0.00,0.00,VWS V14.01,2013-03-16 08:40:00,
2013-03-16 04:45:00,45.1,37.0,29.72,SW,214,0.0,0.0,73,0.00,,,0.00,0.00,VWS V14.01,2013-03-16 08:45:00,
2013-03-16 04:50:00,44.8,36.7,29.72,SW,214,0.0,0.0,73,0.00,,,0.00,0.00,VWS V14.01,2013-03-16 08:50:00,
2013-03-16 04:55:00,44.6,37.2,29.72,SW,214,0.0,0.0,75,0.00,,,0.00,0.00,VWS V14.01,2013-03-16 08:55:00,
2013-03-16 05:00:00,44.5,37.1,29.72,SW,214,0.0,0.0,75,0.00,,,0.00,0.00,VWS V14.01,2013-03-16 09:00:00,
2013-03-16 05:05:00,44.2,37.1,29.72,SW,214,0.0,0.0,76,0.00,,,0.00,0.00,VWS V14.01,2013-03-16 09:05:00,
2013-03-16 05:10:00,44.1,37.0,29.72,SW,214,0.0,0.0,76,0.00,,,0.00,0.00,VWS V14.01,2013-03-16 09:10:00,
2013-03-16 05:15:00,43.9,37.2,29.72,SW,214,0.0,0.0,77,0.00,,,0.00,0.00,VWS V14.01,2013-03-16 09:15:00,
2013-03-16 05:20:00,43.8,37.1,29.72,SW,214,0.0,0.0,77,0.00,,,0.00,0.00,VWS V14.01,2013-03-16 09:20:00,
2013-03-16 05:25:00,43.6,37.2,29.72,SW,214,1.0,1.0,78,0.00,,,0.00,0.00,VWS V14.01,2013-03-16 09:25:00,
2013-03-16 05:30:00,43.3,36.9,29.72,SW,214,0.0,0.0,78,0.00,,,0.00,0.00,VWS V14.01,2013-03-16 09:30:00,
2013-03-16 05:35:00,43.2,36.8,29.72,SW,214,0.0,0.0,78,0.00,,,0.00,0.00,VWS V14.01,2013-03-16 09:35:00,
2013-03-16 05:40:00,43.1,36.7,29.72,SW,214,0.0,0.0,78,0.00,,,0.00,0.00,VWS V14.01,2013-03-16 09:40:00,
2013-03-16 05:45:00,43.1,37.0,29.72,SW,214,0.0,0.0,79,0.00,,,0.00,0.00,VWS V14.01,2013-03-16 09:45:00,
2013-03-16 05:50:00,42.9,37.2,29.72,SW,214,0.0,0.0,80,0.00,,,0.00,0.00,VWS V14.01,2013-03-16 09:50:00,
2013-03-16 05:55:00,42.9,37.2,29.72,SW,214,0.0,0.0,80,0.00,,,0.00,0.00,VWS V14.01,2013-03-16 09:55:00,
2013-03-16 06:00:00,42.8,37.1,29.72,SW,214,0.0,0.0,80,0.00,,,0.00,0.00,VWS V14.01,2013-03-16 10:00:00,
2013-03-16 06:05:00,42.8,37.4,29.72,SW,214,0.0,0.0,81,0.00,,,0.00,0.00,VWS V14.01,2013-03-16 10:05:00,
2013-03-16 06:10:00,42.9,37.8,29.72,SW,214,0.0,0.0,82,0.00,,,0.00,0.00,VWS V14.01,2013-03-16 10:10:00,
2013-03-16 06:15:00,42.9,38.1,29.72,SW,214,0.0,0.0,83,0.00,,,0.00,0.00,VWS V14.01,2013-03-16 10:15:00,
2013-03-16 06:20:00,43.1,38.3,29.72,SW,214,0.0,0.0,83,0.00,,,0.00,0.00,VWS V14.01,2013-03-16 10:20:00,
2013-03-16 06:25:00,43.3,38.8,29.72,SW,214,0.0,0.0,84,0.00,,,0.00,0.00,VWS V14.01,2013-03-16 10:25:00,
2013-03-16 06:30:00,43.5,39.0,29.72,SW,214,0.0,0.0,84,0.00,,,0.00,0.00,VWS V14.01,2013-03-16 10:30:00,
2013-03-16 06:34:00,43.8,39.3,29.72,SW,214,0.0,0.0,84,0.00,,,0.00,0.00,VWS V14.01,2013-03-16 10:34:00,
2013-03-16 06:40:00,43.9,39.4,29.72,SW,214,0.0,0.0,84,0.00,,,0.00,0.00,VWS V14.01,2013-03-16 10:40:00,
2013-03-16 06:44:00,44.1,39.6,29.72,SW,214,0.0,0.0,84,0.00,,,0.00,0.00,VWS V14.01,2013-03-16 10:44:00,
2013-03-16 06:49:00,44.1,39.6,29.72,SW,214,0.0,0.0,84,0.00,,,0.00,0.00,VWS V14.01,2013-03-16 10:49:00,
2013-03-16 06:54:00,44.1,39.6,29.72,SW,214,0.0,0.0,84,0.00,,,0.00,0.00,VWS V14.01,2013-03-16 10:54:00,
2013-03-16 06:59:00,44.1,39.3,29.73,SW,214,0.0,0.0,83,0.00,,,0.00,0.00,VWS V14.01,2013-03-16 10:59:00,
2013-03-16 07:04:00,44.2,39.7,29.73,SW,214,0.0,0.0,84,0.00,,,0.00,0.00,VWS V14.01,2013-03-16 11:04:00,
2013-03-16 07:09:00,44.2,39.7,29.73,SW,214,0.0,0.0,84,0.00,,,0.00,0.00,VWS V14.01,2013-03-16 11:09:00,
2013-03-16 07:14:00,44.3,39.8,29.73,SW,214,0.0,0.0,84,0.00,,,0.00,0.00,VWS V14.01,2013-03-16 11:14:00,
2013-03-16 07:19:00,44.5,39.7,29.73,SW,214,0.0,0.0,83,0.00,,,0.00,0.00,VWS V14.01,2013-03-16 11:19:00,
2013-03-16 07:24:00,44.5,39.7,29.73,SW,214,0.0,0.0,83,0.00,,,0.00,0.00,VWS V14.01,2013-03-16 11:24:00,
2013-03-16 07:29:00,44.6,39.8,29.74,SW,214,0.0,0.0,83,0.00,,,0.00,0.00,VWS V14.01,2013-03-16 11:29:00,
2013-03-16 07:34:00,44.8,40.0,29.74,SW,214,0.0,0.0,83,0.00,,,0.00,5.00,VWS V14.01,2013-03-16 11:34:00,
2013-03-16 07:39:00,44.9,40.1,29.74,SW,214,0.0,0.0,83,0.00,,,0.00,7.00,VWS V14.01,2013-03-16 11:39:00,
2013-03-16 07:44:00,45.1,40.2,29.73,SW,214,0.0,0.0,83,0.00,,,0.00,7.00,VWS V14.01,2013-03-16 11:44:00,
2013-03-16 07:49:00,45.2,40.3,29.73,SW,214,0.0,1.0,83,0.00,,,0.00,16.00,VWS V14.01,2013-03-16 11:49:00,
2013-03-16 07:54:00,45.4,40.5,29.73,SW,214,0.0,0.0,83,0.00,,,0.00,19.00,VWS V14.01,2013-03-16 11:54:00,
2013-03-16 07:59:00,45.5,40.7,29.73,SW,214,1.0,2.0,83,0.00,,,0.00,23.00,VWS V14.01,2013-03-16 11:59:00,
2013-03-16 08:04:00,46.0,40.2,29.73,SW,214,0.0,0.0,80,0.00,,,0.00,28.00,VWS V14.01,2013-03-16 12:04:00,
2013-03-16 08:09:00,46.4,39.9,29.73,SW,214,0.0,0.0,78,0.00,,,0.00,32.00,VWS V14.01,2013-03-16 12:09:00,
2013-03-16 08:14:00,47.0,39.8,29.72,SW,214,2.0,3.0,76,0.00,,,0.00,46.00,VWS V14.01,2013-03-16 12:14:00,
2013-03-16 08:19:00,47.7,40.2,29.72,SW,214,0.0,0.0,75,0.00,,,0.00,44.00,VWS V14.01,2013-03-16 12:19:00,
2013-03-16 08:24:00,48.3,39.7,29.72,SW,214,0.0,0.0,72,0.00,,,0.00,33.00,VWS V14.01,2013-03-16 12:24:00,
2013-03-16 08:29:00,48.9,40.3,29.73,SW,214,0.0,0.0,72,0.00,,,0.00,25.00,VWS V14.01,2013-03-16 12:29:00,
2013-03-16 08:34:00,49.4,40.8,29.73,SW,214,0.0,0.0,72,0.00,,,0.00,30.00,VWS V14.01,2013-03-16 12:34:00,
2013-03-16 08:39:00,49.6,41.0,29.73,SW,214,0.0,0.0,72,0.00,,,0.00,44.00,VWS V14.01,2013-03-16 12:39:00,
2013-03-16 08:44:00,49.9,41.2,29.73,SW,214,0.0,0.0,72,0.00,,,0.00,56.00,VWS V14.01,2013-03-16 12:44:00,
2013-03-16 08:49:00,50.1,41.4,29.73,SW,214,0.0,0.0,72,0.00,,,0.00,62.00,VWS V14.01,2013-03-16 12:49:00,
2013-03-16 08:54:00,50.4,41.4,29.73,SW,214,0.0,0.0,71,0.00,,,0.00,49.00,VWS V14.01,2013-03-16 12:54:00,
2013-03-16 08:59:00,50.7,41.7,29.73,SW,214,0.0,0.0,71,0.00,,,0.00,62.00,VWS V14.01,2013-03-16 12:59:00,
2013-03-16 09:04:00,51.0,41.9,29.73,SW,214,0.0,0.0,71,0.00,,,0.00,40.00,VWS V14.01,2013-03-16 13:04:00,
2013-03-16 09:09:00,51.3,41.9,29.73,SW,214,0.0,0.0,70,0.00,,,0.00,39.00,VWS V14.01,2013-03-16 13:09:00,
2013-03-16 09:14:00,51.4,42.3,29.73,SW,214,0.0,0.0,71,0.00,,,0.00,62.00,VWS V14.01,2013-03-16 13:14:00,
2013-03-16 09:19:00,51.7,43.0,29.73,SW,214,0.0,0.0,72,0.00,,,0.00,91.00,VWS V14.01,2013-03-16 13:19:00,
2013-03-16 09:24:00,51.9,43.9,29.73,SW,214,0.0,0.0,74,0.00,,,0.00,111.00,VWS V14.01,2013-03-16 13:24:00,
2013-03-16 09:29:00,52.3,44.6,29.73,SW,214,0.0,0.0,75,0.00,,,0.00,127.00,VWS V14.01,2013-03-16 13:29:00,
2013-03-16 09:34:00,52.6,45.3,29.73,SW,214,0.0,0.0,76,0.00,,,0.00,72.00,VWS V14.01,2013-03-16 13:34:00,
2013-03-16 09:39:00,52.8,45.5,29.73,SW,214,0.0,0.0,76,0.00,,,0.00,88.00,VWS V14.01,2013-03-16 13:39:00,
2013-03-16 09:44:00,52.9,45.9,29.73,SW,214,1.0,3.0,77,0.00,,,0.00,39.00,VWS V14.01,2013-03-16 13:44:00,
2013-03-16 09:49:00,53.1,45.0,29.73,SW,214,0.0,0.0,74,0.00,,,0.00,62.00,VWS V14.01,2013-03-16 13:49:00,
2013-03-16 09:54:00,53.2,45.1,29.73,SW,214,1.0,2.0,74,0.00,,,0.00,93.00,VWS V14.01,2013-03-16 13:54:00,
2013-03-16 09:59:00,53.6,45.5,29.72,SSW,200,3.0,6.0,74,0.00,,,0.00,104.00,VWS V14.01,2013-03-16 13:59:00,
2013-03-16 10:04:00,54.2,45.4,29.72,SSW,207,0.0,0.0,72,0.00,,,0.00,79.00,VWS V14.01,2013-03-16 14:04:00,
2013-03-16 10:09:00,54.7,46.2,29.72,SSW,207,0.0,0.0,73,0.00,,,0.00,81.00,VWS V14.01,2013-03-16 14:09:00,
2013-03-16 10:14:00,55.1,46.2,29.72,SSW,207,0.0,0.0,72,0.00,,,0.00,123.00,VWS V14.01,2013-03-16 14:14:00,
2013-03-16 10:19:00,55.6,46.7,29.72,SSW,207,3.0,4.0,72,0.00,,,0.00,109.00,VWS V14.01,2013-03-16 14:19:00,
2013-03-16 10:24:00,56.2,45.4,29.72,SW,221,2.0,4.0,67,0.00,,,0.00,148.00,VWS V14.01,2013-03-16 14:24:00,
2013-03-16 10:29:00,57.0,45.0,29.71,SSW,207,5.0,6.0,64,0.00,,,0.00,146.00,VWS V14.01,2013-03-16 14:29:00,
2013-03-16 10:34:00,58.0,45.5,29.71,SW,226,3.0,7.0,63,0.00,,,0.00,181.00,VWS V14.01,2013-03-16 14:34:00,
2013-03-16 10:39:00,58.7,45.3,29.71,WSW,237,0.0,0.0,61,0.00,,,0.00,206.00,VWS V14.01,2013-03-16 14:39:00,
2013-03-16 10:44:00,59.3,45.0,29.71,West,272,4.0,5.0,59,0.00,,,0.00,294.00,VWS V14.01,2013-03-16 14:44:00,
2013-03-16 10:49:00,60.1,44.8,29.71,SSW,199,1.0,2.0,57,0.00,,,0.00,244.00,VWS V14.01,2013-03-16 14:49:00,
2013-03-16 10:54:00,60.7,44.9,29.71,WSW,255,3.0,4.0,56,0.00,,,0.00,267.00,VWS V14.01,2013-03-16 14:54:00,
2013-03-16 10:59:00,61.2,44.9,29.71,SW,225,0.0,0.0,55,0.00,,,0.00,274.00,VWS V14.01,2013-03-16 14:59:00,
2013-03-16 11:04:00,61.6,44.8,29.71,WSW,257,2.0,2.0,54,0.00,,,0.00,267.00,VWS V14.01,2013-03-16 15:04:00,
2013-03-16 11:09:00,61.8,44.5,29.71,SW,217,3.0,6.0,53,0.00,,,0.00,267.00,VWS V14.01,2013-03-16 15:09:00,
2013-03-16 11:14:00,62.3,45.0,29.70,SSW,199,0.0,5.0,53,0.00,,,0.00,304.00,VWS V14.01,2013-03-16 15:14:00,
2013-03-16 11:19:00,62.9,44.5,29.70,West,272,9.0,9.0,51,0.00,,,0.00,469.00,VWS V14.01,2013-03-16 15:19:00,
2013-03-16 11:24:00,63.7,45.2,29.70,SW,215,9.0,9.0,51,0.00,,,0.00,740.00,VWS V14.01,2013-03-16 15:24:00,
2013-03-16 11:29:00,64.7,45.7,29.70,WSW,242,10.0,10.0,50,0.00,,,0.00,554.00,VWS V14.01,2013-03-16 15:29:00,
2013-03-16 11:34:00,65.5,44.8,29.70,SW,225,3.0,5.0,47,0.00,,,0.00,554.00,VWS V14.01,2013-03-16 15:34:00,
2013-03-16 11:39:00,65.6,44.8,29.70,SW,215,2.0,4.0,47,0.00,,,0.00,332.00,VWS V14.01,2013-03-16 15:39:00,
2013-03-16 11:44:00,65.6,44.8,29.69,West,271,5.0,5.0,47,0.00,,,0.00,559.00,VWS V14.01,2013-03-16 15:44:00,
2013-03-16 11:49:00,66.1,44.7,29.69,West,271,9.0,10.0,46,0.00,,,0.00,367.00,VWS V14.01,2013-03-16 15:49:00,
2013-03-16 11:54:00,66.3,44.3,29.69,SSW,192,5.0,5.0,45,0.00,,,0.00,329.00,VWS V14.01,2013-03-16 15:54:00,
2013-03-16 11:59:00,66.6,44.6,29.68,SW,228,0.0,0.0,45,0.00,,,0.00,842.00,VWS V14.01,2013-03-16 15:59:00,
2013-03-16 12:04:00,67.3,44.7,29.68,SSW,205,4.0,7.0,44,0.00,,,0.00,571.00,VWS V14.01,2013-03-16 16:04:00,
2013-03-16 12:09:00,67.6,45.5,29.68,WSW,237,7.0,7.0,45,0.00,,,0.00,777.00,VWS V14.01,2013-03-16 16:09:00,
2013-03-16 12:14:00,67.6,44.3,29.67,SW,232,2.0,5.0,43,0.00,,,0.00,777.00,VWS V14.01,2013-03-16 16:14:00,
2013-03-16 12:19:00,67.3,44.1,29.67,South,188,4.0,5.0,43,0.00,,,0.00,566.00,VWS V14.01,2013-03-16 16:19:00,
2013-03-16 12:24:00,67.4,44.2,29.67,SW,224,5.0,7.0,43,0.00,,,0.00,626.00,VWS V14.01,2013-03-16 16:24:00,
2013-03-16 12:29:00,67.6,44.3,29.67,SW,224,10.0,11.0,43,0.00,,,0.00,497.00,VWS V14.01,2013-03-16 16:29:00,
2013-03-16 12:34:00,67.9,44.6,29.67,WSW,254,4.0,7.0,43,0.00,,,0.00,357.00,VWS V14.01,2013-03-16 16:34:00,
2013-03-16 12:39:00,67.9,44.6,29.67,South,171,0.0,1.0,43,0.00,,,0.00,483.00,VWS V14.01,2013-03-16 16:39:00,
2013-03-16 12:44:00,68.6,45.2,29.67,SW,214,12.0,12.0,43,0.00,,,0.00,691.00,VWS V14.01,2013-03-16 16:44:00,
2013-03-16 12:49:00,68.9,45.5,29.67,WSW,248,6.0,10.0,43,0.00,,,0.00,914.00,VWS V14.01,2013-03-16 16:49:00,
2013-03-16 12:54:00,69.6,46.1,29.67,SW,214,3.0,3.0,43,0.00,,,0.00,677.00,VWS V14.01,2013-03-16 16:54:00,
2013-03-16 12:59:00,70.1,45.3,29.66,SW,227,6.0,6.0,41,0.00,,,0.00,434.00,VWS V14.01,2013-03-16 16:59:00,
2013-03-16 13:04:00,70.6,45.8,29.66,SSW,192,4.0,5.0,41,0.00,,,0.00,446.00,VWS V14.01,2013-03-16 17:04:00,
2013-03-16 13:09:00,70.8,45.3,29.66,SW,236,3.0,4.0,40,0.00,,,0.00,552.00,VWS V14.01,2013-03-16 17:09:00,
2013-03-16 13:14:00,71.1,45.6,29.65,WSW,244,7.0,13.0,40,0.00,,,0.00,462.00,VWS V14.01,2013-03-16 17:14:00,
2013-03-16 13:19:00,71.5,45.3,29.65,SSW,207,4.0,4.0,39,0.00,,,0.00,454.00,VWS V14.01,2013-03-16 17:19:00,
2013-03-16 13:24:00,71.8,44.8,29.65,West,268,4.0,9.0,38,0.00,,,0.00,438.00,VWS V14.01,2013-03-16 17:24:00,
2013-03-16 13:29:00,72.0,45.0,29.65,SSW,200,8.0,8.0,38,0.00,,,0.00,461.00,VWS V14.01,2013-03-16 17:29:00,
2013-03-16 13:34:00,72.3,45.3,29.65,WSW,240,4.0,10.0,38,0.00,,,0.00,791.00,VWS V14.01,2013-03-16 17:34:00,
2013-03-16 13:39:00,73.0,44.5,29.65,West,261,6.0,9.0,36,0.00,,,0.00,406.00,VWS V14.01,2013-03-16 17:39:00,
2013-03-16 13:44:00,73.3,44.8,29.64,WSW,243,3.0,4.0,36,0.00,,,0.00,394.00,VWS V14.01,2013-03-16 17:44:00,
2013-03-16 13:49:00,73.7,45.1,29.64,West,261,5.0,5.0,36,0.00,,,0.00,355.00,VWS V14.01,2013-03-16 17:49:00,
2013-03-16 13:54:00,74.2,44.1,29.64,SSW,205,5.0,9.0,34,0.00,,,0.00,496.00,VWS V14.01,2013-03-16 17:54:00,
2013-03-16 13:59:00,74.4,44.2,29.63,WSW,249,0.0,3.0,34,0.00,,,0.00,642.00,VWS V14.01,2013-03-16 17:59:00,
2013-03-16 14:04:00,74.6,44.4,29.63,SW,221,9.0,14.0,34,0.00,,,0.00,744.00,VWS V14.01,2013-03-16 18:04:00,
2013-03-16 14:09:00,74.4,44.2,29.63,South,174,3.0,5.0,34,0.00,,,0.00,353.00,VWS V14.01,2013-03-16 18:09:00,
2013-03-16 14:14:00,74.4,45.0,29.63,SSW,193,14.0,17.0,35,0.00,,,0.00,374.00,VWS V14.01,2013-03-16 18:14:00,
2013-03-16 14:19:00,73.9,44.5,29.63,WSW,240,5.0,13.0,35,0.00,,,0.00,464.00,VWS V14.01,2013-03-16 18:19:00,
2013-03-16 14:24:00,73.9,44.5,29.63,West,261,7.0,7.0,35,0.00,,,0.00,568.00,VWS V14.01,2013-03-16 18:24:00,
2013-03-16 14:29:00,74.2,45.6,29.63,SW,220,3.0,7.0,36,0.00,,,0.00,694.00,VWS V14.01,2013-03-16 18:29:00,
2013-03-16 14:34:00,75.1,44.8,29.62,WNW,285,10.0,10.0,34,0.00,,,0.00,617.00,VWS V14.01,2013-03-16 18:34:00,
2013-03-16 14:39:00,75.4,45.1,29.62,South,181,3.0,4.0,34,0.00,,,0.00,434.00,VWS V14.01,2013-03-16 18:39:00,
2013-03-16 14:44:00,75.8,45.5,29.61,West,264,5.0,5.0,34,0.00,,,0.00,615.00,VWS V14.01,2013-03-16 18:44:00,
2013-03-16 14:49:00,76.3,44.3,29.61,WSW,247,6.0,10.0,32,0.00,,,0.00,608.00,VWS V14.01,2013-03-16 18:49:00,
2013-03-16 14:54:00,76.5,44.5,29.61,West,264,11.0,11.0,32,0.00,,,0.00,571.00,VWS V14.01,2013-03-16 18:54:00,
2013-03-16 14:59:00,76.8,44.7,29.60,SSW,195,5.0,5.0,32,0.00,,,0.00,589.00,VWS V14.01,2013-03-16 18:59:00,
2013-03-16 15:04:00,77.2,44.2,29.60,West,264,11.0,11.0,31,0.00,,,0.00,585.00,VWS V14.01,2013-03-16 19:04:00,
2013-03-16 15:09:00,77.4,44.4,29.60,West,273,9.0,9.0,31,0.00,,,0.00,415.00,VWS V14.01,2013-03-16 19:09:00,
2013-03-16 15:14:00,77.4,45.3,29.59,WSW,257,1.0,1.0,32,0.00,,,0.00,457.00,VWS V14.01,2013-03-16 19:14:00,
2013-03-16 15:19:00,77.7,43.8,29.59,SW,221,7.0,7.0,30,0.00,,,0.00,462.00,VWS V14.01,2013-03-16 19:19:00,
2013-03-16 15:24:00,77.7,44.7,29.59,WSW,247,13.0,14.0,31,0.00,,,0.00,403.00,VWS V14.01,2013-03-16 19:24:00,
2013-03-16 15:29:00,77.4,43.6,29.59,WSW,256,4.0,6.0,30,0.00,,,0.00,380.00,VWS V14.01,2013-03-16 19:29:00,
2013-03-16 15:34:00,77.4,44.4,29.59,WSW,238,4.0,4.0,31,0.00,,,0.00,383.00,VWS V14.01,2013-03-16 19:34:00,
2013-03-16 15:39:00,77.6,44.6,29.59,South,181,4.0,7.0,31,0.00,,,0.00,406.00,VWS V14.01,2013-03-16 19:39:00,
2013-03-16 15:44:00,77.7,44.7,29.59,WSW,255,3.0,14.0,31,0.00,,,0.00,390.00,VWS V14.01,2013-03-16 19:44:00,
2013-03-16 15:49:00,77.7,43.8,29.58,SSW,210,0.0,1.0,30,0.00,,,0.00,459.00,VWS V14.01,2013-03-16 19:49:00,
2013-03-16 15:54:00,77.9,44.0,29.58,SSE,159,0.0,0.0,30,0.00,,,0.00,397.00,VWS V14.01,2013-03-16 19:54:00,
2013-03-16 15:59:00,78.1,44.2,29.58,SW,231,8.0,13.0,30,0.00,,,0.00,436.00,VWS V14.01,2013-03-16 19:59:00,
2013-03-16 16:04:00,78.5,43.6,29.57,SW,236,0.0,3.0,29,0.00,,,0.00,429.00,VWS V14.01,2013-03-16 20:04:00,
2013-03-16 16:09:00,78.6,43.7,29.57,SSE,159,0.0,0.0,29,0.00,,,0.00,438.00,VWS V14.01,2013-03-16 20:09:00,
2013-03-16 16:14:00,79.2,45.1,29.57,South,187,4.0,4.0,30,0.00,,,0.00,628.00,VWS V14.01,2013-03-16 20:14:00,
2013-03-16 16:19:00,79.8,43.8,29.57,WNW,300,10.0,12.0,28,0.00,,,0.00,504.00,VWS V14.01,2013-03-16 20:19:00,
2013-03-16 16:24:00,79.8,43.8,29.57,WNW,295,13.0,16.0,28,0.00,,,0.00,543.00,VWS V14.01,2013-03-16 20:24:00,
2013-03-16 16:29:00,79.6,43.7,29.57,West,261,16.0,17.0,28,0.00,,,0.00,585.00,VWS V14.01,2013-03-16 20:29:00,
2013-03-16 16:34:00,79.6,43.7,29.57,WSW,254,13.0,14.0,28,0.00,,,0.00,429.00,VWS V14.01,2013-03-16 20:34:00,
2013-03-16 16:39:00,79.4,42.5,29.57,West,277,5.0,5.0,27,0.00,,,0.00,515.00,VWS V14.01,2013-03-16 20:39:00,
2013-03-16 16:44:00,79.6,42.7,29.56,West,271,10.0,10.0,27,0.00,,,0.00,462.00,VWS V14.01,2013-03-16 20:44:00,
2013-03-16 16:49:00,79.6,43.7,29.56,WSW,258,18.0,18.0,28,0.00,,,0.00,538.00,VWS V14.01,2013-03-16 20:49:00,
2013-03-16 16:54:00,79.4,43.5,29.56,WSW,241,6.0,7.0,28,0.00,,,0.00,399.00,VWS V14.01,2013-03-16 20:54:00,
2013-03-16 16:59:00,79.6,42.7,29.56,WSW,258,10.0,10.0,27,0.00,,,0.00,404.00,VWS V14.01,2013-03-16 20:59:00,
2013-03-16 17:04:00,79.8,42.9,29.56,West,263,9.0,10.0,27,0.00,,,0.00,313.00,VWS V14.01,2013-03-16 21:04:00,
2013-03-16 17:09:00,79.8,43.8,29.56,West,259,15.0,15.0,28,0.00,,,0.00,360.00,VWS V14.01,2013-03-16 21:09:00,
2013-03-16 17:14:00,79.6,43.7,29.56,West,259,14.0,14.0,28,0.00,,,0.00,320.00,VWS V14.01,2013-03-16 21:14:00,
2013-03-16 17:19:00,79.2,43.3,29.56,WSW,243,6.0,15.0,28,0.00,,,0.00,292.00,VWS V14.01,2013-03-16 21:19:00,
2013-03-16 17:24:00,78.8,42.0,29.56,WSW,254,11.0,11.0,27,0.00,,,0.00,207.00,VWS V14.01,2013-03-16 21:24:00,
2013-03-16 17:29:00,78.5,43.6,29.56,West,260,8.0,17.0,29,0.00,,,0.00,274.00,VWS V14.01,2013-03-16 21:29:00,
2013-03-16 17:34:00,78.3,42.5,29.56,WSW,243,2.0,13.0,28,0.00,,,0.00,185.00,VWS V14.01,2013-03-16 21:34:00,
2013-03-16 17:39:00,78.1,42.4,29.56,WSW,240,12.0,12.0,28,0.00,,,0.00,163.00,VWS V14.01,2013-03-16 21:39:00,
2013-03-16 17:44:00,77.7,42.9,29.56,WSW,256,11.0,11.0,29,0.00,,,0.00,139.00,VWS V14.01,2013-03-16 21:44:00,
2013-03-16 17:49:00,77.6,42.9,29.55,SW,235,12.0,17.0,29,0.00,,,0.00,132.00,VWS V14.01,2013-03-16 21:49:00,
2013-03-16 17:54:00,77.2,41.6,29.55,West,276,15.0,15.0,28,0.00,,,0.00,130.00,VWS V14.01,2013-03-16 21:54:00,
2013-03-16 17:59:00,77.0,41.4,29.55,West,262,7.0,18.0,28,0.00,,,0.00,114.00,VWS V14.01,2013-03-16 21:59:00,
2013-03-16 18:04:00,76.8,42.2,29.55,West,281,8.0,21.0,29,0.00,,,0.00,93.00,VWS V14.01,2013-03-16 22:04:00,
2013-03-16 18:09:00,76.7,42.1,29.55,West,276,5.0,11.0,29,0.00,,,0.00,70.00,VWS V14.01,2013-03-16 22:09:00,
2013-03-16 18:14:00,76.5,42.8,29.55,WNW,282,7.0,12.0,30,0.00,,,0.00,62.00,VWS V14.01,2013-03-16 22:14:00,
2013-03-16 18:19:00,76.3,42.6,29.54,NW,311,13.0,19.0,30,0.00,,,0.00,62.00,VWS V14.01,2013-03-16 22:19:00,
2013-03-16 18:24:00,76.3,42.6,29.54,WSW,248,9.0,9.0,30,0.00,,,0.00,58.00,VWS V14.01,2013-03-16 22:24:00,
2013-03-16 18:29:00,76.1,42.5,29.54,SW,233,4.0,10.0,30,0.00,,,0.00,54.00,VWS V14.01,2013-03-16 22:29:00,
2013-03-16 18:34:00,76.0,42.4,29.54,WSW,243,3.0,13.0,30,0.00,,,0.00,53.00,VWS V14.01,2013-03-16 22:34:00,
2013-03-16 18:39:00,76.0,43.2,29.54,SW,229,4.0,19.0,31,0.00,,,0.00,42.00,VWS V14.01,2013-03-16 22:39:00,
2013-03-16 18:44:00,75.8,43.0,29.54,WSW,248,14.0,16.0,31,0.00,,,0.00,33.00,VWS V14.01,2013-03-16 22:44:00,
2013-03-16 18:49:00,75.8,42.2,29.55,West,265,6.0,6.0,30,0.00,,,0.00,28.00,VWS V14.01,2013-03-16 22:49:00,
2013-03-16 18:54:00,75.6,42.9,29.55,West,262,6.0,11.0,31,0.00,,,0.00,23.00,VWS V14.01,2013-03-16 22:54:00,
2013-03-16 18:59:00,75.4,42.7,29.55,West,262,7.0,7.0,31,0.00,,,0.00,19.00,VWS V14.01,2013-03-16 22:59:00,
2013-03-16 19:04:00,75.1,42.4,29.56,WSW,238,8.0,11.0,31,0.00,,,0.00,18.00,VWS V14.01,2013-03-16 23:04:00,
2013-03-16 19:09:00,75.1,41.6,29.56,WNW,296,7.0,10.0,30,0.00,,,0.00,16.00,VWS V14.01,2013-03-16 23:09:00,
2013-03-16 19:14:00,75.1,41.6,29.56,WSW,257,3.0,10.0,30,0.00,,,0.00,9.00,VWS V14.01,2013-03-16 23:14:00,
2013-03-16 19:19:00,75.1,41.6,29.56,WSW,256,9.0,12.0,30,0.00,,,0.00,0.00,VWS V14.01,2013-03-16 23:19:00,
2013-03-16 19:24:00,74.9,42.3,29.56,West,259,2.0,12.0,31,0.00,,,0.00,0.00,VWS V14.01,2013-03-16 23:24:00,
2013-03-16 19:29:00,74.7,42.1,29.56,SW,236,11.0,11.0,31,0.00,,,0.00,0.00,VWS V14.01,2013-03-16 23:29:00,
2013-03-16 19:34:00,74.6,42.0,29.57,SW,222,2.0,6.0,31,0.00,,,0.00,0.00,VWS V14.01,2013-03-16 23:34:00,
2013-03-16 19:39:00,74.4,41.8,29.57,West,261,3.0,6.0,31,0.00,,,0.00,0.00,VWS V14.01,2013-03-16 23:39:00,
2013-03-16 19:44:00,74.2,41.7,29.57,WSW,255,5.0,11.0,31,0.00,,,0.00,0.00,VWS V14.01,2013-03-16 23:44:00,
2013-03-16 19:49:00,74.2,42.5,29.57,West,265,13.0,13.0,32,0.00,,,0.00,0.00,VWS V14.01,2013-03-16 23:49:00,
2013-03-16 19:54:00,74.0,42.3,29.57,WSW,246,7.0,8.0,32,0.00,,,0.00,0.00,VWS V14.01,2013-03-16 23:54:00,
2013-03-16 19:59:00,73.9,42.2,29.57,WSW,254,3.0,5.0,32,0.00,,,0.00,0.00,VWS V14.01,2013-03-16 23:59:00,
2013-03-16 20:04:00,73.7,42.8,29.59,WSW,249,0.0,6.0,33,0.00,,,0.00,0.00,VWS V14.01,2013-03-17 00:04:00,
2013-03-16 20:09:00,73.3,42.5,29.59,WSW,238,12.0,12.0,33,0.00,,,0.00,0.00,VWS V14.01,2013-03-17 00:09:00,
2013-03-16 20:14:00,73.3,42.5,29.59,WSW,252,0.0,4.0,33,0.00,,,0.00,0.00,VWS V14.01,2013-03-17 00:14:00,
2013-03-16 20:19:00,73.2,43.2,29.61,WNW,285,9.0,11.0,34,0.00,,,0.00,0.00,VWS V14.01,2013-03-17 00:19:00,
2013-03-16 20:24:00,73.2,43.2,29.61,West,261,5.0,7.0,34,0.00,,,0.00,0.00,VWS V14.01,2013-03-17 00:24:00,
2013-03-16 20:29:00,73.2,43.2,29.61,West,272,4.0,4.0,34,0.00,,,0.00,0.00,VWS V14.01,2013-03-17 00:29:00,
2013-03-16 20:34:00,73.2,43.2,29.62,West,276,0.0,5.0,34,0.00,,,0.00,0.00,VWS V14.01,2013-03-17 00:34:00,
2013-03-16 20:39:00,73.2,43.9,29.62,NW,315,0.0,1.0,35,0.00,,,0.00,0.00,VWS V14.01,2013-03-17 00:39:00,
2013-03-16 20:44:00,73.0,43.8,29.62,NNW,340,3.0,3.0,35,0.00,,,0.00,0.00,VWS V14.01,2013-03-17 00:44:00,
2013-03-16 20:49:00,72.8,43.6,29.65,NW,326,0.0,0.0,35,0.00,,,0.00,0.00,VWS V14.01,2013-03-17 00:49:00,
2013-03-16 20:54:00,72.5,43.3,29.65,NNW,333,0.0,0.0,35,0.00,,,0.00,0.00,VWS V14.01,2013-03-17 00:54:00,
2013-03-16 20:59:00,72.3,43.9,29.65,North,358,2.0,3.0,36,0.00,,,0.00,0.00,VWS V14.01,2013-03-17 00:59:00,
2013-03-16 21:04:00,72.0,43.6,29.67,WNW,302,3.0,6.0,36,0.00,,,0.00,0.00,VWS V14.01,2013-03-17 01:04:00,
2013-03-16 21:09:00,71.8,43.4,29.67,WNW,285,0.0,1.0,36,0.00,,,0.00,0.00,VWS V14.01,2013-03-17 01:09:00,
2013-03-16 21:14:00,71.6,43.3,29.67,WNW,285,0.0,0.0,36,0.00,,,0.00,0.00,VWS V14.01,2013-03-17 01:14:00,
2013-03-16 21:19:00,71.5,43.9,29.68,WNW,285,0.0,0.0,37,0.00,,,0.00,0.00,VWS V14.01,2013-03-17 01:19:00,
2013-03-16 21:24:00,71.3,43.7,29.68,WNW,285,0.0,0.0,37,0.00,,,0.00,0.00,VWS V14.01,2013-03-17 01:24:00,
2013-03-16 21:29:00,70.9,44.0,29.68,WNW,285,0.0,0.0,38,0.00,,,0.00,0.00,VWS V14.01,2013-03-17 01:29:00,
2013-03-16 21:34:00,70.8,44.0,29.68,WNW,285,0.0,0.0,38,0.00,,,0.00,0.00,VWS V14.01,2013-03-17 01:34:00,
2013-03-16 21:39:00,70.4,45.0,29.68,WNW,285,0.0,0.0,40,0.00,,,0.00,0.00,VWS V14.01,2013-03-17 01:39:00,
2013-03-16 21:44:00,70.3,44.9,29.68,WNW,285,0.0,0.0,40,0.00,,,0.00,0.00,VWS V14.01,2013-03-17 01:44:00,
2013-03-16 21:49:00,69.9,45.2,29.69,WNW,285,0.0,3.0,41,0.00,,,0.00,0.00,VWS V14.01,2013-03-17 01:49:00,
2013-03-16 21:54:00,69.6,45.5,29.69,WNW,303,3.0,3.0,42,0.00,,,0.00,0.00,VWS V14.01,2013-03-17 01:54:00,
2013-03-16 21:59:00,69.4,46.6,29.69,WNW,300,0.0,4.0,44,0.00,,,0.00,0.00,VWS V14.01,2013-03-17 01:59:00,
2013-03-16 22:04:00,69.4,46.6,29.70,WNW,300,0.0,4.0,44,0.00,,,0.00,0.00,VWS V14.01,2013-03-17 02:04:00,
2013-03-16 22:09:00,69.3,47.1,29.70,WNW,300,3.0,3.0,45,0.00,,,0.00,0.00,VWS V14.01,2013-03-17 02:09:00,
2013-03-16 22:14:00,69.1,47.5,29.70,West,270,0.0,1.0,46,0.00,,,0.00,0.00,VWS V14.01,2013-03-17 02:14:00,
2013-03-16 22:19:00,68.9,47.3,29.71,SW,236,0.0,0.0,46,0.00,,,0.00,0.00,VWS V14.01,2013-03-17 02:19:00,
2013-03-16 22:24:00,68.9,47.9,29.71,WNW,293,4.0,4.0,47,0.00,,,0.00,0.00,VWS V14.01,2013-03-17 02:24:00,
2013-03-16 22:29:00,68.8,47.8,29.71,NW,325,0.0,0.0,47,0.00,,,0.00,0.00,VWS V14.01,2013-03-17 02:29:00,
2013-03-16 22:34:00,68.4,47.4,29.71,NW,325,0.0,0.0,47,0.00,,,0.00,0.00,VWS V14.01,2013-03-17 02:34:00,
2013-03-16 22:39:00,67.9,47.0,29.71,NW,325,0.0,3.0,47,0.00,,,0.00,0.00,VWS V14.01,2013-03-17 02:39:00,
2013-03-16 22:44:00,67.3,47.5,29.71,NW,325,0.0,0.0,49,0.00,,,0.00,0.00,VWS V14.01,2013-03-17 02:44:00,
2013-03-16 22:49:00,66.8,48.1,29.71,NW,325,0.0,0.0,51,0.00,,,0.00,0.00,VWS V14.01,2013-03-17 02:49:00,
2013-03-16 22:54:00,66.3,47.7,29.71,NW,325,0.0,0.0,51,0.00,,,0.00,0.00,VWS V14.01,2013-03-17 02:54:00,
2013-03-16 22:59:00,65.8,47.7,29.71,NW,325,0.0,0.0,52,0.00,,,0.00,0.00,VWS V14.01,2013-03-17 02:59:00,
2013-03-16 23:04:00,65.5,48.4,29.71,NW,325,0.0,0.0,54,0.00,,,0.00,0.00,VWS V14.01,2013-03-17 03:04:00,
2013-03-16 23:09:00,65.0,48.5,29.71,West,271,0.0,0.0,55,0.00,,,0.00,0.00,VWS V14.01,2013-03-17 03:09:00,
2013-03-16 23:14:00,64.5,48.0,29.71,West,271,0.0,0.0,55,0.00,,,0.00,0.00,VWS V14.01,2013-03-17 03:14:00,
2013-03-16 23:19:00,64.0,48.0,29.72,West,271,0.0,0.0,56,0.00,,,0.00,0.00,VWS V14.01,2013-03-17 03:19:00,
2013-03-16 23:24:00,63.5,48.0,29.72,West,271,0.0,0.0,57,0.00,,,0.00,0.00,VWS V14.01,2013-03-17 03:24:00,
2013-03-16 23:29:00,62.9,47.9,29.72,West,271,0.0,0.0,58,0.00,,,0.00,0.00,VWS V14.01,2013-03-17 03:29:00,
2013-03-16 23:34:00,62.4,47.9,29.72,West,271,0.0,0.0,59,0.00,,,0.00,0.00,VWS V14.01,2013-03-17 03:34:00,
2013-03-16 23:39:00,61.8,48.2,29.72,West,271,0.0,0.0,61,0.00,,,0.00,0.00,VWS V14.01,2013-03-17 03:39:00,
2013-03-16 23:44:00,61.2,47.7,29.72,West,271,0.0,0.0,61,0.00,,,0.00,0.00,VWS V14.01,2013-03-17 03:44:00,
2013-03-16 23:49:00,60.7,47.6,29.72,West,271,0.0,0.0,62,0.00,,,0.00,0.00,VWS V14.01,2013-03-17 03:49:00,
2013-03-16 23:54:00,60.4,47.8,29.72,West,271,0.0,0.0,63,0.00,,,0.00,0.00,VWS V14.01,2013-03-17 03:54:00,
2013-03-16 23:59:00,59.9,47.7,29.72,West,271,0.0,0.0,64,0.00,,,0.00,0.00,VWS V14.01,2013-03-17 03:59:00,